Regional Weather Roundup
Issued by NWS Memphis, TN

Home | Current Version | Previous Version | Text Only | Print | Product List | Glossary On
Versions: 1 2 3 4 5 6 7 8 9 10 11 12 13 14 15 16 17 18 19 20 21 22 23 24 25 26 27 28 29 30 31 32 33 34 35 36 37 38 39 40 41 42 43 44 45 46 47 48 49 50
000
ASUS44 KMEG 171410
RWRMEG
MEMPHIS CWA HOURLY WEATHER ROUNDUP
NATIONAL WEATHER SERVICE MEMPHIS TN
800 AM CST SUN DEC 17 2017

...WEST TENNESSEE...

CITY           SKY/WX    TMP DP  RH WIND       PRES   REMARKS
MEMPHIS INTL   CLOUDY    42  40  92 E5        30.11R
NWS MEMPHIS      N/A     41 N/A N/A MISG        N/A
JACKSON        CLOUDY    40  39  97 SE7       30.12F
COVINGTON      CLOUDY    41  39  93 SE8       30.13R
SOMERVILLE     MOCLDY    41  41 100 VRB5      30.08F
BOLIVAR        CLOUDY    39  39 100 E9G15     30.09F WCI  33
LEXINGTON      MOCLDY    39  39 100 SE5       30.19F FOG
SELMER         CLOUDY    39  37  93 SE8       30.16F FOG     WCI  34
SAVANNAH       CLOUDY    39  39 100 S7        30.21F WCI  34
DYERSBURG      CLOUDY    41  40  96 SE3       30.15R
UNION CITY     CLOUDY    41  39  93 S8        30.14S
PARIS          CLOUDY    39  39 100 SE8       30.13F FOG     WCI  34
HUNTINGDON     CLOUDY    41  39  93 SE7       30.16F


...EASTERN ARKANSAS...

CITY           SKY/WX    TMP DP  RH WIND       PRES   REMARKS
JONESBORO      CLOUDY    42  42 100 E5        30.13R
WEST MEMPHIS   CLOUDY    42  32  67 E3        30.12R
BATESVILLE     CLOUDY    43  42  97 E6        30.10R FOG
NEWPORT        MOCLDY    42  42 100 E9        30.11S
WALNUT RIDGE   MOCLDY    42  41  96 SE10      30.12S
BLYTHEVILLE    CLOUDY    43  32  65 S5        30.15R
SEARCY         CLOUDY    43  43 100 SE7       30.12
STUTTGART      PTCLDY    42  41  96 E7        30.10S
PINE BLUFF     CLOUDY    42  41  96 E7        30.11R
MONTICELLO     CLOUDY    43  41  93 E5        30.11R


...NORTH MISSISSIPPI...

CITY           SKY/WX    TMP DP  RH WIND       PRES   REMARKS
TUPELO         LGT RAIN  41  39  93 E8        30.17F FOG
BATESVILLE     CLOUDY    42  39  91 E3        30.11S
OLIVE BRANCH   MOCLDY    39  39 100 CALM      30.10R
TUNICA           N/A    N/A N/A N/A CALM      30.13R
CLARKSDALE     CLOUDY    43  43 100 CALM      30.12R
CORINTH        LGT RAIN  41  39  93 E15       30.12F
GREENWOOD      CLOUDY    44  43  96 SE12      30.08F
COLUMBUS       RAIN      41  41 100 N8        30.20F FOG
STARKVILLE     RAIN      41  39  93 CALM      30.21S
GOLDEN TRIANGL LGT RAIN  42  41  96 NE9       30.19F FOG


...SOUTHEAST MISSOURI...

CITY           SKY/WX    TMP DP  RH WIND       PRES   REMARKS
KENNETT        CLOUDY    43  43 100 S5        30.14R
MALDEN         DRIZZLE   43  41  93 S7        30.16R
WEST PLAINS    LGT RAIN  41  40  96 S5        30.08R FOG
POPLAR BLUFF   LGT RAIN  42  42 100 MISG      30.13R FOG
CAPE GIRARDEAU LGT RAIN  41  39  93 CALM      30.12F


...NORTHWEST ALABAMA...

CITY           SKY/WX    TMP DP  RH WIND       PRES   REMARKS
MUSCLE SHOALS  RAIN      40  37  89 CALM      30.26R


...MIDDLE TENNESSEE...

CITY           SKY/WX    TMP DP  RH WIND       PRES   REMARKS
NASHVILLE      RAIN      40  37  89 SE5       30.23R FOG
CLARKSVILLE    LGT RAIN  41  33  73 S7        30.19S
COLUMBIA       CLOUDY    39  39 100 CALM      30.21S FOG


...WESTERN KENTUCKY...

CITY           SKY/WX    TMP DP  RH WIND       PRES   REMARKS
PADUCAH        LGT RAIN  41  36  82 MISG      30.12F
FORT CAMPBELL  LGT RAIN  41  34  76 S9        30.17F


...CENTRAL ARKANSAS...

CITY           SKY/WX    TMP DP  RH WIND       PRES   REMARKS
LITTLE ROCK    CLOUDY    42  42 100 S7        30.12R


SKY/WX REPORTED AS FAIR MEANS FEW OR NO CLOUDS BELOW
12 THOUSAND FEET.




USA.gov is the U.S. government's official web portal to all federal, state and local government web resources and services.